Regional Weather Roundup
Issued by NWS Portland, ME

Current Version | Previous Version | Text Only | Print | Product List | Glossary Off
Versions: 1 2 3 4 5 6 7 8 9 10 11 12 13 14 15 16 17 18 19 20 21 22 23 24 25 26 27 28 29 30 31 32 33 34 35 36 37 38 39 40 41 42 43 44 45 46 47 48 49 50
000 ASUS41 KGYX 202010 RWRGYX WEATHER ROUNDUP FOR MAINE AND NEW HAMPSHIRE NATIONAL WEATHER SERVICE GRAY ME 400 PM EDT MON AUG 20 2018 MEZ002-005-006-010-012-015-018-020-021-024-026-027-029-202100- MAINE CITY SKY/WX TMP DP RH WIND PRES REMARKS PORTLAND FAIR 71 61 70 E9 30.18S SANFORD FAIR 73 61 65 SE8 30.18S BAR HARBOR FAIR 71 60 68 SE6 30.17S WISCASSET PTSUNNY 73 60 63 VRB7 30.18F ROCKLAND FAIR 69 60 73 SE12 30.17F FRYEBURG PTSUNNY 78 55 44 CALM 30.17F LEWISTONAUBURN N/A 72 62 71 S9 30.17S AUGUSTA CLOUDY 75 54 47 CALM 30.17S WATERVILLE CLOUDY 75 57 53 CALM 30.14F BANGOR PTSUNNY 76 54 46 VRB3 30.16S GREENVILLE N/A 71 53 52 CALM 30.17F MILLINOCKET FAIR 75 53 46 VRB3 30.17F HOULTON FAIR 73 55 53 SE3 30.16F PRESQUE ISLE FAIR 74 52 46 VRB5 30.18F FRENCHVILLE FAIR 75 52 44 S9 30.16F CARIBOU FAIR 75 48 38 SE7 30.17F $$ NHZ002-005-008-009-011-012-014-202100- NEW HAMPSHIRE CITY SKY/WX TMP DP RH WIND PRES REMARKS PORTSMOUTH MOSUNNY 72 58 60 E7 30.16S ROCHESTER FAIR 73 58 59 SE7 30.17S NASHUA PTSUNNY 76 59 55 SE10 30.18R MANCHESTER PTSUNNY 77 57 50 SE14G21 30.15S CONCORD FAIR 77 58 51 SE6 30.16S LACONIA PTSUNNY 75 57 53 E7 30.17S PLYMOUTH FAIR 78 55 45 SW6 30.16S BERLIN FAIR 77 53 43 CALM 30.17F WHITEFIELD FAIR 78 56 46 NW5 30.16F JAFFREY FAIR 74 60 61 SE8 30.20R KEENE CLOUDY N/A N/A N/A VRB7 30.16S LEBANON FAIR 78 55 44 NE5 30.15F MT WASHINGTON PTSUNNY 54 48 82 W10 N/A $$ VTZ005-007-008-202100- VERMONT CITY SKY/WX TMP DP RH WIND PRES REMARKS ST JOHNSBURY N/A 78 55 44 MISG 30.13F MONTPELIER CLOUDY 75 55 49 E5 30.19F BURLINGTON FAIR 82 57 42 VRB7 30.11F $$ MAZ007-012-024-CTZ003-RIZ002-NYZ038-NYZ072-202100- SOUTHERN NEW ENGLAND AND NY CITY SKY/WX TMP DP RH WIND PRES REMARKS BOSTON FAIR 72 64 76 E13 30.17R WORCESTER CLOUDY 69 59 70 E8 30.18S NANTUCKET CLOUDY 69 66 90 N18G25 30.10S PROVIDENCE MOSUNNY 77 57 50 NE15 30.14S HARTFORD PTSUNNY 79 60 52 NE9 30.14F ALBANY PTSUNNY 77 58 51 VRB5 30.13F NEW YORK CITY CLOUDY 75 63 66 NE6 30.12F $$ ANZ081-ANZ082-ANZ150-NHZ014-MEZ023>029-202100- COASTAL MARINE OBSERVATIONS STATION/POSITION TIME TEMP WIND PRES WAVE AIR SEA DIR/SP/G HT/PER (UTC) (F) (DEG/KT/KT) (MB) (FT/S) MOUNT DESERT ROC 2000 60 50/ 12/ 12 1021.7F MATINICUS ROCK 1900 60 80/ 11/ 11 1021.4F ISLE OF SHOALS 1900 65 40/ 10/ 12 1021.4S JEFFREYS LEDGE 1936 69 N/A 4/ 7 $$ .............KEY.............. WCI - WIND CHILL TC - TEMPERATURE IN CELSIUS VSB - VISIBILITY IN MILES HX - HEAT INDEX FAIR- INDICATES FEW OR NO CLOUDS BELOW 12,000 FT, WITH NO SIGNIFICANT WEATHER AND/OR OBSTRUCTIONS TO VISIBILITY.

USA.gov is the U.S. government's official web portal to all federal, state and local government web resources and services.